Weather reports worldwide

Advertisment
Fyvie castle, United Kingdom (99010): temperature & dewpoint: 17.09.2020 07:00:00 - 23.09.2020 07:00:00 (BST)Fyvie castle, United Kingdom (99010): precipitation: 17.09.2020 07:00:00 - 23.09.2020 07:00:00 (BST)
Date & Time tt [°C] td [°C] rr [mm]
23.09.2020 07:00:00 - - -
23.09.2020 06:00:00 6,4 5,3 0,0
23.09.2020 05:00:00 7,0 5,6 0,0
23.09.2020 04:00:00 7,7 6,2 0,0
23.09.2020 03:00:00 7,8 6,4 0,0
23.09.2020 02:00:00 8,3 7,3 0,0
23.09.2020 01:00:00 8,8 8,1 0,6
23.09.2020 00:00:00 10,8 8,9 0,0
22.09.2020 23:00:00 14,3 9,2 0,0
22.09.2020 22:00:00 13,5 10,6 0,0
22.09.2020 21:00:00 13,7 10,4 0,0
22.09.2020 20:00:00 14,0 9,9 0,0
22.09.2020 19:00:00 13,7 9,8 0,0
22.09.2020 18:00:00 14,8 10,0 0,0
22.09.2020 17:00:00 15,5 9,8 0,0
22.09.2020 16:00:00 16,2 9,8 0,0
22.09.2020 15:00:00 15,8 9,3 0,0
22.09.2020 14:00:00 16,2 9,6 0,0
22.09.2020 13:00:00 17,0 9,1 0,0
22.09.2020 12:00:00 14,7 9,0 0,0
22.09.2020 11:00:00 14,3 9,2 0,0
22.09.2020 10:00:00 13,5 9,6 0,0
22.09.2020 09:00:00 12,1 9,5 0,0
22.09.2020 08:00:00 9,2 8,9 0,0
22.09.2020 07:00:00 8,7 7,6 0,0
22.09.2020 06:00:00 9,9 8,1 0,0
22.09.2020 05:00:00 10,7 8,7 0,0
22.09.2020 04:00:00 9,5 9,5 0,0
22.09.2020 03:00:00 8,1 8,1 0,0
22.09.2020 02:00:00 7,9 7,9 0,0
22.09.2020 01:00:00 8,0 7,9 0,0
22.09.2020 00:00:00 9,0 8,5 0,0
21.09.2020 23:00:00 9,9 9,0 0,0
21.09.2020 22:00:00 9,7 9,1 0,0
21.09.2020 21:00:00 11,0 9,2 0,0
21.09.2020 20:00:00 11,7 8,7 0,0
21.09.2020 19:00:00 14,2 9,1 0,0
21.09.2020 18:00:00 15,8 9,4 0,0
21.09.2020 17:00:00 18,1 7,0 0,0
21.09.2020 16:00:00 20,9 11,5 0,0
21.09.2020 15:00:00 20,8 10,6 0,0
21.09.2020 14:00:00 20,5 9,7 0,0
21.09.2020 13:00:00 20,1 9,9 0,0
21.09.2020 12:00:00 17,2 11,1 0,0
21.09.2020 11:00:00 12,4 11,2 0,0
21.09.2020 10:00:00 9,0 9,0 0,0
21.09.2020 09:00:00 5,5 5,5 0,0
21.09.2020 08:00:00 4,8 4,8 0,0
21.09.2020 07:00:00 5,1 5,1 0,0
21.09.2020 06:00:00 5,9 5,9 0,0
21.09.2020 05:00:00 6,4 6,4 0,0
21.09.2020 04:00:00 6,7 6,7 0,0
21.09.2020 03:00:00 8,0 7,9 0,0
21.09.2020 02:00:00 8,5 8,3 0,0
21.09.2020 01:00:00 10,4 9,4 0,0
21.09.2020 00:00:00 11,1 10,5 0,0
20.09.2020 23:00:00 10,7 10,5 0,0
20.09.2020 22:00:00 11,3 10,6 0,0
20.09.2020 21:00:00 12,2 10,7 0,0
20.09.2020 20:00:00 13,0 10,7 0,0
20.09.2020 19:00:00 14,9 11,6 0,0
20.09.2020 18:00:00 16,8 12,0 0,0
20.09.2020 17:00:00 18,5 11,6 0,0
20.09.2020 16:00:00 20,6 11,6 0,0
20.09.2020 15:00:00 22,1 12,4 0,0
20.09.2020 14:00:00 21,5 11,9 0,0
20.09.2020 13:00:00 21,6 11,7 0,0
20.09.2020 12:00:00 20,3 12,9 0,0
20.09.2020 11:00:00 15,3 15,3 0,0
20.09.2020 10:00:00 9,7 9,7 0,0
20.09.2020 09:00:00 5,7 5,7 0,0
20.09.2020 08:00:00 4,0 4,0 0,0
20.09.2020 07:00:00 3,6 3,6 0,0
20.09.2020 06:00:00 4,0 4,0 0,0
20.09.2020 05:00:00 4,1 4,1 0,0
20.09.2020 04:00:00 4,5 4,5 0,0
20.09.2020 03:00:00 4,6 4,6 0,0
20.09.2020 02:00:00 5,5 5,5 0,0
20.09.2020 01:00:00 5,9 5,9 0,0
20.09.2020 00:00:00 6,5 6,4 0,0
19.09.2020 23:00:00 7,3 7,2 0,0
19.09.2020 22:00:00 8,3 8,0 0,0
19.09.2020 21:00:00 9,4 8,7 0,0
19.09.2020 20:00:00 11,2 9,3 0,0
19.09.2020 19:00:00 13,5 8,8 0,0
19.09.2020 18:00:00 16,3 9,6 0,0
19.09.2020 17:00:00 18,1 10,2 0,0
19.09.2020 16:00:00 20,0 10,1 0,0
19.09.2020 15:00:00 20,7 9,5 0,0
19.09.2020 14:00:00 20,7 9,0 0,0
19.09.2020 13:00:00 20,6 10,8 0,0
19.09.2020 12:00:00 18,4 8,5 0,0
19.09.2020 11:00:00 15,9 12,7 0,0
19.09.2020 10:00:00 10,2 10,2 0,0
19.09.2020 09:00:00 8,5 8,5 0,0
19.09.2020 08:00:00 7,4 7,4 0,0
19.09.2020 07:00:00 6,4 6,4 0,0
19.09.2020 06:00:00 6,9 6,9 0,0
19.09.2020 05:00:00 7,7 7,7 0,0
19.09.2020 04:00:00 8,6 8,6 0,0
19.09.2020 03:00:00 9,6 9,6 0,0
19.09.2020 02:00:00 9,3 9,3 0,0
19.09.2020 01:00:00 8,5 8,5 0,0
19.09.2020 00:00:00 8,4 8,3 0,0
18.09.2020 23:00:00 9,4 9,0 0,0
18.09.2020 22:00:00 10,5 9,7 0,0
18.09.2020 21:00:00 12,4 11,2 0,0
18.09.2020 20:00:00 13,2 12,0 0,0
18.09.2020 19:00:00 15,2 12,8 0,0
18.09.2020 18:00:00 17,4 13,6 0,0
18.09.2020 17:00:00 19,1 14,5 0,0
18.09.2020 16:00:00 19,6 14,9 0,0
18.09.2020 15:00:00 19,8 14,4 0,0
18.09.2020 14:00:00 19,6 14,8 0,0
18.09.2020 13:00:00 19,1 14,6 0,0
18.09.2020 12:00:00 18,5 14,0 0,0
18.09.2020 11:00:00 17,2 13,8 0,0
18.09.2020 10:00:00 14,1 13,7 0,0
18.09.2020 09:00:00 11,7 11,7 0,0
18.09.2020 08:00:00 10,4 10,4 0,0
18.09.2020 07:00:00 10,4 10,4 0,0
18.09.2020 06:00:00 10,3 10,3 0,0
18.09.2020 05:00:00 10,5 10,5 0,0
18.09.2020 04:00:00 10,6 10,6 0,0
18.09.2020 03:00:00 10,6 10,6 0,0
18.09.2020 02:00:00 10,5 10,5 0,0
18.09.2020 01:00:00 10,2 10,2 0,0
18.09.2020 00:00:00 9,8 9,8 0,0
17.09.2020 23:00:00 8,8 8,6 0,0
17.09.2020 22:00:00 9,5 9,0 0,0
17.09.2020 21:00:00 10,8 9,8 0,0
17.09.2020 20:00:00 12,5 10,8 0,0
17.09.2020 19:00:00 14,7 11,5 0,0
17.09.2020 18:00:00 17,2 12,1 0,0
17.09.2020 17:00:00 19,1 12,5 0,0
17.09.2020 16:00:00 20,6 13,9 0,0
17.09.2020 15:00:00 20,0 12,7 0,0
17.09.2020 14:00:00 20,4 12,4 0,0
17.09.2020 13:00:00 18,3 11,2 0,0
17.09.2020 12:00:00 17,2 10,5 0,0
17.09.2020 11:00:00 15,1 10,3 0,0
17.09.2020 10:00:00 11,0 9,5 0,0
17.09.2020 09:00:00 9,1 8,7 0,0
17.09.2020 08:00:00 7,0 7,0 0,0
17.09.2020 07:00:00 6,0 5,6 0,0

tt = temperature
td = dewpoint
rr = precipitation

Next stations